Weather History for Valdosta Regional, GA

Change the Weather History Date:

Thursday, February 6, 2014

  Actual Average Record
Temperature  
Mean Temperature 55 °F 52 °F  
Max Temperature 70 °F 65 °F 70 °F (2014)
Min Temperature 40 °F 40 °F 40 °F (2014)
Degree Days  
Heating Degree Days 10 13  
Month to date heating degree days 17 80  
Since 1 July heating degree days 873 1149  
Moisture  
Dew Point 36 °F    
Average Humidity 63    
Maximum Humidity 80    
Minimum Humidity 46    
Precipitation  
Precipitation 0.18 in - 0.18 in (2014)
Sea Level Pressure  
Sea Level Pressure 30.25 in    
Wind  
Wind Speed 6 mph (NNE)    
Max Wind Speed 16 mph    
Max Gust Speed 21 mph    
Visibility 9 miles    
Events Rain    
T = Trace of Precipitation, MM = Missing Value Source: NWS Daily Summary

Daily Weather History Graph

Daily Weather History Graph

Search for Another Location

Airport:

Trip Planner

Search our weather history database for the weather conditions in past years. The results will help you decide how hot, cold, wet, or windy it might be!

Date:

Astronomy

Feb. 06, 2014 Rise Set
Actual Time 7:21 AM EST 6:13 PM EST
Civil Twilight 6:56 AM EST 6:38 PM EST
Nautical Twilight 6:27 AM EST 7:07 PM EST
Astronomical Twilight 5:59 AM EST 7:35 PM EST
Moon 11:45 AM EST (2/6) 12:36 AM EST (2/6)
Length of Visible Light 11h 42m
Length of Day
10h 52m
Waxing Crescent, 49% of the Moon is Illuminated
Feb 6
Waxing Crescent
Feb 6
First Quarter
Feb 14
Full
Feb 22
Last Quarter
Mar 1
New

Hourly Weather History & Observations

Time (EST) Temp. Windchill Dew Point Humidity Pressure Visibility Wind Dir Wind Speed Gust Speed Precip Events Conditions
12:53 AM 48.0 °F - 37.9 °F 68% 30.19 in 10.0 mi Calm Calm - N/A   Clear
1:53 AM 45.0 °F 42.6 °F 35.1 °F 68% 30.19 in 10.0 mi Variable 4.6 mph - N/A   Clear
2:53 AM 44.1 °F 42.5 °F 34.0 °F 68% 30.19 in 10.0 mi Variable 3.5 mph - N/A   Clear
3:53 AM 42.1 °F 38.4 °F 33.1 °F 70% 30.19 in 10.0 mi North 5.8 mph - N/A   Clear
4:53 AM 41.0 °F - 33.1 °F 73% 30.21 in 10.0 mi Calm Calm - N/A   Clear
5:53 AM 41.0 °F 35.8 °F 32.0 °F 70% 30.22 in 10.0 mi North 8.1 mph - N/A   Clear
6:53 AM 39.9 °F 33.9 °F 30.9 °F 70% 30.24 in 10.0 mi NNE 9.2 mph - N/A   Clear
7:53 AM 41.0 °F 37.1 °F 30.0 °F 65% 30.27 in 10.0 mi NNE 5.8 mph - N/A   Clear
8:53 AM 43.0 °F 36.4 °F 30.9 °F 62% 30.29 in 10.0 mi NNE 12.7 mph - N/A   Clear
9:53 AM 46.0 °F 40.6 °F 30.9 °F 56% 30.30 in 10.0 mi NNE 11.5 mph - N/A   Clear
10:53 AM 48.9 °F - 32.0 °F 52% 30.28 in 10.0 mi NNE 8.1 mph - N/A   Scattered Clouds
11:53 AM 50.0 °F - 32.0 °F 50% 30.27 in 10.0 mi NNE 8.1 mph - N/A   Scattered Clouds
12:53 PM 54.0 °F - 33.1 °F 45% 30.22 in 10.0 mi North 10.4 mph 17.3 mph N/A   Mostly Cloudy
1:53 PM 54.0 °F - 34.0 °F 47% 30.21 in 10.0 mi Variable 5.8 mph - N/A   Overcast
2:53 PM 54.0 °F - 34.0 °F 47% 30.20 in 10.0 mi NNE 9.2 mph - N/A   Overcast
3:53 PM 53.1 °F - 36.0 °F 52% 30.25 in 8.0 mi Calm Calm - 0.00 in Rain Light Rain
4:53 PM 48.0 °F - 41.0 °F 77% 30.23 in 7.0 mi North 3.5 mph - 0.05 in Rain Light Rain
5:53 PM 48.0 °F - 42.1 °F 80% 30.23 in 9.0 mi North 8.1 mph - 0.02 in Rain Light Rain
6:53 PM 48.0 °F - 42.1 °F 80% 30.28 in 8.0 mi Calm Calm - 0.00 in   Overcast
7:53 PM 46.9 °F - 43.0 °F 86% 30.30 in 6.0 mi Calm Calm - 0.05 in Rain Light Rain
8:53 PM 46.0 °F 44.8 °F 41.0 °F 83% 30.32 in 6.0 mi Variable 3.5 mph - 0.03 in Rain Light Rain
9:53 PM 46.0 °F 43.1 °F 39.0 °F 76% 30.31 in 9.0 mi NNE 5.8 mph - 0.01 in   Overcast
10:53 PM 46.0 °F 44.8 °F 39.9 °F 79% 30.30 in 9.0 mi North 3.5 mph - 0.01 in Rain Light Rain
11:53 PM 46.0 °F 43.1 °F 41.0 °F 83% 30.30 in 6.0 mi North 5.8 mph - 0.01 in Rain Light Rain